Theta_e
322 322 323 323 322 321 320 320 320 319 318 318 317 316 316 315 315 314 314 314 313 312 312 315 317 316 316 317 317 318 318 319 318 319 319 319 318 318 319 318 319 318 320 317 315 315 315 317 318 318 315 308
319 320 320 320 320 319 318 318 317 317 316 315 314 313 312 312 313 313 313 313 312 311 311 313 314 314 314 315 316 317 317 316 317 317 317 317 317 318 317 316 317 316 317 316 315 314 315 315 316 316 314 305
314 317 317 317 317 316 316 316 315 314 313 313 313 313 311 310 310 310 310 310 310 309 308 310 311 312 312 313 314 315 315 314 316 316 315 315 316 315 313 314 314 314 314 314 314 314 314 313 313 310 307 303
307 314 315 314 314 314 313 313 312 312 311 311 311 311 310 309 306 307 306 308 306 307 306 307 308 310 310 310 312 313 312 313 314 314 314 313 314 313 311 311 312 312 312 312 313 313 313 311 307 301 301 301
304 309 313 312 313 311 310 309 309 309 309 309 310 309 310 307 301 299 298 298 301 308 302 308 310 309 309 308 310 310 310 311 312 312 312 312 312 310 310 309 310 310 311 311 311 312 311 307 300 300 300 301
304 306 306 303 304 304 307 309 310 306 302 307 300 307 305 301 302 297 297 299 306 302 305 304 308 307 307 307 307 307 308 309 309 310 310 310 309 307 307 306 299 301 305 308 310 310 307 300 299 300 300 300
301 300 299 299 300 302 306 305 302 301 303 299 298 298 298 299 298 296 297 298 300 302 307 304 308 305 305 304 304 304 304 305 307 307 307 308 307 306 304 297 297 297 298 298 304 304 300 298 299 299 300 299
298 298 298 297 298 299 299 300 300 298 298 298 297 297 297 296 298 297 298 308 307 303 296 298 305 304 304 303 303 302 300 302 303 303 303 305 304 301 297 295 295 296 295 297 299 299 298 298 299 299 299 298
297 297 298 296 296 297 296 297 297 298 298 297 297 296 297 297 297 296 296 295 295 294 294 293 293 293 293 293 293 299 292 292 293 294 293 293 296 293 294 294 294 294 295 296 296 296 297 298 298 299 299 298
298 299 296 295 297 297 297 298 296 297 297 297 296 296 296 298 296 296 295 294 294 294 293 293 292 292 292 291 291 294 291 291 291 291 291 292 293 293 293 293 294 294 295 294 294 295 296 297 297 297 297 297
298 297 296 296 297 296 296 297 296 296 296 296 295 295 297 295 294 294 293 293 293 292 293 292 292 291 291 290 290 292 291 290 291 290 290 291 292 292 292 293 293 293 294 293 293 294 294 295 295 296 295 296
297 296 296 296 299 297 298 297 296 295 294 296 294 295 296 295 293 293 292 293 292 292 292 292 291 290 291 290 290 292 291 290 289 290 290 291 291 292 292 292 292 293 293 293 293 293 294 294 294 294 294 295
296 296 296 297 297 295 300 295 295 295 295 294 294 294 295 295 293 292 292 291 292 291 291 291 290 290 290 290 289 290 289 290 290 290 290 290 290 291 291 291 291 292 293 292 292 293 293 293 293 293 294 294
296 296 296 296 296 295 299 294 294 295 293 293 293 293 293 294 292 291 291 291 290 290 290 290 290 290 289 289 289 289 289 290 289 289 289 290 290 291 290 290 291 292 291 291 292 292 292 292 292 292 292 293
295 296 295 296 295 295 295 295 295 294 293 292 293 293 293 293 293 292 291 290 290 290 289 289 289 289 289 288 288 289 289 290 290 289 289 289 289 290 290 290 290 290 290 290 290 291 291 291 291 291 292 291
295 295 295 295 294 294 294 295 294 293 293 293 292 293 292 292 292 293 291 290 290 290 289 289 289 288 288 287 288 289 288 289 289 289 289 289 290 289 289 289 289 290 290 289 289 290 290 291 291 291 291 291
295 295 295 294 293 293 295 294 293 292 292 292 293 293 292 291 292 293 292 290 291 292 289 289 288 288 289 288 288 288 289 289 288 288 288 288 290 289 289 289 289 290 289 288 289 289 289 290 290 291 291 290
295 295 294 294 292 294 294 293 293 292 292 293 293 293 291 291 292 291 291 291 289 289 288 289 289 288 287 287 288 288 288 287 287 287 287 288 287 290 289 287 288 288 288 288 288 288 289 289 289 289 289 290
294 295 294 293 293 294 293 293 292 292 292 292 292 292 291 291 292 291 291 290 289 288 288 288 287 287 287 287 287 286 287 287 287 287 287 288 287 286 287 287 288 288 287 287 288 288 288 288 289 289 289 290
294 295 294 293 295 293 293 292 292 292 292 292 291 291 291 290 291 290 290 290 289 288 287 287 287 287 288 287 287 287 287 287 286 286 287 287 287 286 286 288 286 287 287 287 287 287 288 288 289 289 289 289
293 293 293 293 294 293 293 292 291 291 291 291 291 291 290 290 291 290 290 289 289 288 288 287 287 286 287 287 286 286 285 285 287 286 288 286 288 287 286 285 285 286 286 286 287 287 288 288 289 288 288 288
293 293 293 293 292 293 292 291 291 291 291 291 291 290 290 290 290 290 289 289 288 287 288 287 287 287 287 287 286 285 285 285 286 285 286 285 286 286 285 284 284 285 286 287 287 287 288 288 288 288 288 288
292 292 291 291 291 292 291 290 290 291 290 290 290 290 290 290 290 290 289 289 288 287 287 286 287 287 287 286 285 285 284 284 287 286 285 285 285 286 286 285 285 285 286 286 287 286 287 287 287 288 288 289
291 291 291 290 290 290 290 290 290 290 290 289 289 290 290 289 289 289 289 288 288 287 287 286 286 286 286 286 285 285 284 283 283 284 284 285 285 284 285 287 285 285 285 285 285 285 286 287 287 287 288 287
291 290 289 289 290 290 290 290 289 289 289 289 289 290 290 289 289 289 288 288 287 286 288 286 285 286 285 286 286 285 285 284 284 285 285 285 285 285 283 284 285 284 285 283 283 284 284 285 285 287 287 286
292 291 291 291 290 290 290 289 289 288 288 288 289 290 289 289 288 288 288 288 287 287 286 285 285 285 285 285 285 285 285 284 287 285 284 284 282 284 284 283 284 286 284 281 280 280 281 282 283 284 285 285
291 291 291 291 289 290 288 288 289 288 288 289 288 288 289 288 288 288 287 287 287 286 286 285 285 285 285 285 286 284 283 283 283 283 283 283 283 282 282 284 286 284 284 281 281 281 280 278 280 283 282 283
291 291 289 288 289 289 287 287 288 287 287 287 287 287 288 288 288 287 287 287 287 287 286 285 285 285 284 285 285 283 283 282 282 283 283 283 284 283 281 281 281 285 283 282 281 277 279 279 279 277 277 281
290 290 288 288 288 287 287 287 286 286 285 286 287 287 287 287 287 287 286 286 286 286 285 285 284 284 284 284 284 284 283 282 283 283 283 283 283 282 282 281 280 282 283 282 284 281 279 277 276 276 278 281
290 290 289 287 286 285 285 285 285 285 285 285 286 287 287 287 287 287 286 286 286 285 285 284 284 284 284 283 283 284 283 283 282 282 282 282 282 282 282 281 281 280 283 284 284 283 282 282 277 278 280 279
290 289 289 288 288 287 287 286 286 287 287 287 287 287 286 286 286 286 286 285 285 285 285 284 284 284 283 283 283 284 283 282 282 282 282 283 282 282 285 282 280 280 280 281 281 283 282 282 283 282 279 276
Wind_Speed
13 14 14 14 13 13 13 14 14 14 14 14 14 13 13 13 13 13 13 14 14 15 14 14 14 14 15 15 15 15 15 15 16 16 16 16 16 16 16 16 15 15 14 14 14 14 14 14 13 11 9 5
13 13 14 13 13 12 12 13 14 14 14 14 14 13 13 12 12 12 13 13 14 14 14 13 13 14 14 15 15 15 15 16 16 16 16 17 17 17 17 17 17 17 17 17 17 17 17 17 15 11 8 5
7 12 13 13 12 12 12 12 13 13 13 13 13 13 13 12 12 11 11 11 12 13 13 11 11 12 13 13 13 12 13 13 13 13 14 14 15 15 16 17 18 18 18 18 18 18 18 17 13 13 8 7
5 9 11 12 12 12 12 12 12 12 12 11 10 11 10 11 7 7 5 8 6 9 10 9 6 10 11 12 11 11 11 12 12 12 12 13 14 15 16 16 16 16 17 17 17 17 16 13 13 9 7 8
6 6 10 9 10 10 11 11 11 11 9 7 7 7 8 8 5 4 4 3 3 5 2 4 3 9 10 11 11 12 12 12 12 12 13 13 14 15 15 14 12 11 13 15 15 14 12 12 8 7 7 8
5 5 7 6 5 4 6 8 8 7 5 6 4 8 7 5 4 5 4 3 4 3 2 1 5 10 11 12 12 12 13 13 13 13 13 14 14 15 14 12 6 6 8 10 11 10 10 7 5 6 6 6
6 6 5 5 5 4 6 5 5 5 5 4 4 6 7 7 6 5 4 3 3 3 4 5 10 10 11 11 12 12 13 13 14 14 13 14 14 13 11 6 6 6 6 7 9 8 7 6 6 5 5 5
7 6 6 6 5 5 5 5 4 4 4 4 5 6 6 6 5 4 5 5 7 6 4 5 7 9 9 9 9 10 6 9 11 12 11 12 11 7 5 5 5 5 5 6 6 6 6 6 6 6 5 5
8 7 6 6 6 6 5 6 5 5 4 4 5 6 6 5 5 5 6 5 6 5 4 4 4 4 4 3 4 5 4 5 4 5 5 5 6 5 6 6 6 6 6 5 5 6 6 5 5 6 6 6
8 8 8 7 7 7 6 6 5 5 5 4 5 5 5 5 6 6 5 5 5 5 4 4 3 3 4 3 4 3 5 5 4 5 5 4 5 5 5 5 5 5 5 6 6 5 5 5 5 5 5 5
8 8 8 8 8 8 7 6 6 6 5 5 5 5 4 7 6 6 6 6 5 5 4 4 3 3 3 4 4 4 5 5 5 5 5 5 5 5 5 5 5 5 5 4 5 5 5 5 5 5 5 4
8 8 8 8 8 8 8 7 7 6 6 5 5 4 5 6 6 7 7 5 6 5 4 4 3 3 4 5 5 5 5 6 5 5 5 4 4 5 5 6 6 6 6 6 5 5 5 5 5 6 6 5
8 8 8 8 8 8 8 7 7 7 6 6 5 4 4 6 6 6 6 6 5 5 4 4 4 3 4 4 4 5 5 4 4 3 3 3 3 4 5 5 6 6 6 6 6 6 6 6 6 6 6 6
9 9 9 9 8 8 7 7 7 6 6 6 5 5 4 5 6 6 6 5 4 6 5 4 3 4 4 5 3 4 5 3 3 3 3 4 4 5 6 6 6 5 6 7 6 6 6 7 6 6 6 6
10 8 9 9 8 8 8 7 7 7 6 6 6 5 4 5 5 6 5 6 5 5 5 4 4 4 4 4 4 3 3 2 3 3 4 4 5 5 6 5 5 6 6 6 6 6 6 7 6 6 6 6
10 9 9 9 8 8 7 8 7 7 7 6 6 4 4 5 6 5 5 5 5 6 5 5 6 4 4 3 3 2 3 4 4 4 3 4 3 3 4 4 5 5 5 6 6 6 7 6 6 6 6 6
9 8 9 9 8 7 7 8 7 7 7 7 6 5 5 5 6 5 6 6 5 5 6 5 5 5 4 3 3 3 3 4 3 4 4 4 3 4 4 4 5 4 4 5 6 6 6 6 6 6 7 7
9 9 8 8 8 7 8 7 7 7 7 7 7 6 5 6 6 6 6 6 5 6 6 5 6 6 4 3 3 3 3 3 2 3 3 3 4 4 4 4 4 5 6 6 5 6 6 6 7 6 7 7
10 8 8 8 8 8 8 7 7 7 7 7 7 7 7 6 6 6 6 5 6 6 5 6 6 5 4 3 3 3 1 2 1 2 2 2 4 3 3 3 3 4 5 6 7 7 6 7 7 7 7 7
10 10 8 8 8 8 8 8 7 8 8 8 7 7 6 6 6 6 6 5 5 6 6 6 7 6 4 4 3 2 1 1 2 2 2 3 3 3 3 4 5 4 6 6 7 7 7 7 7 7 7 8
8 9 8 8 9 9 8 8 8 7 7 7 7 7 6 6 6 6 6 5 5 6 6 6 6 6 5 4 3 3 1 1 1 2 2 2 2 2 2 3 5 5 5 7 7 7 8 8 7 8 8 8
9 9 8 7 7 7 8 7 7 7 8 8 8 7 7 7 7 6 6 6 5 6 5 6 6 6 6 5 4 4 2 1 1 2 3 1 0 2 3 4 4 6 6 6 7 8 9 9 7 8 9 9
9 8 6 6 7 7 6 6 7 8 8 8 8 8 8 8 7 7 7 6 6 7 6 6 6 6 6 5 5 4 3 1 1 3 3 2 0 0 1 2 3 5 6 6 7 8 10 8 9 9 9 8
9 8 9 9 6 6 6 7 7 7 8 7 8 8 9 8 7 7 7 7 6 6 6 6 6 6 5 5 5 4 3 3 3 3 3 1 1 3 0 0 3 3 5 6 7 8 8 7 8 10 10 8
12 12 8 7 10 11 9 9 8 7 7 8 7 9 9 8 8 8 7 7 7 7 7 6 6 6 5 5 5 5 5 5 5 4 3 1 1 2 3 1 1 3 4 6 6 4 6 8 6 9 10 6
12 12 13 13 13 10 9 9 10 9 8 8 7 9 8 8 8 8 7 7 6 7 7 7 7 6 6 6 6 5 5 4 4 3 2 2 2 1 1 2 2 3 5 5 6 11 12 4 4 6 3 3
12 9 7 8 7 9 6 3 4 5 5 6 8 8 8 7 8 8 7 7 7 7 7 7 7 7 6 6 6 5 5 4 4 4 3 3 2 2 1 1 1 1 4 1 4 5 4 8 12 2 5 3
9 8 5 4 6 5 4 5 5 5 5 6 7 8 8 7 8 8 8 8 7 7 7 7 7 6 6 6 5 6 5 4 4 4 3 3 2 1 2 2 2 1 2 2 4 6 2 4 2 11 2 11
9 9 7 7 6 5 6 5 5 6 6 8 8 7 9 11 9 9 8 8 8 8 8 7 7 6 6 6 5 5 5 4 5 4 3 4 3 2 1 2 1 1 2 2 2 1 3 4 3 2 6 13
12 12 12 11 11 11 8 9 10 13 15 13 13 14 9 7 9 9 8 8 8 7 7 7 7 6 6 5 6 6 5 4 4 4 4 4 4 2 3 3 3 2 1 1 1 1 4 3 4 7 6 6
12 12 12 16 16 14 15 15 12 9 8 10 8 7 10 9 8 9 9 8 8 7 7 7 7 7 6 6 6 4 5 5 5 5 4 3 3 3 3 3 3 4 3 3 1 2 2 1 2 2 1 4
Wind_Direction
133 131 130 129 129 129 127 124 121 118 115 112 110 107 102 96 91 87 82 76 69 64 59 55 51 46 44 40 36 35 33 30 27 25 25 23 22 22 21 22 23 21 19 18 13 8 0 350 340 340 349 338
130 128 128 128 128 129 127 125 122 120 117 114 110 104 99 93 86 80 77 74 68 63 59 55 51 49 46 40 37 36 34 30 26 25 23 21 20 17 16 16 16 14 13 13 10 8 4 359 354 354 1 352
129 127 127 129 132 132 131 127 123 120 117 114 109 103 94 88 85 79 74 72 71 65 62 60 53 55 51 44 43 43 40 35 32 31 30 27 25 24 22 17 15 13 11 10 8 6 4 3 3 5 4 356
128 128 129 134 136 135 132 127 122 115 108 109 111 109 103 99 87 80 79 86 80 77 70 65 63 65 64 52 53 51 46 41 38 38 35 31 29 28 24 19 16 12 10 9 6 4 3 6 6 4 358 355
132 133 130 130 135 135 129 121 115 115 123 133 142 132 131 121 109 108 102 103 120 115 115 98 72 73 74 63 60 56 48 43 42 39 37 35 32 27 22 14 8 3 4 4 2 359 2 5 4 356 357 355
141 136 126 133 137 138 136 138 142 145 159 167 173 169 156 150 156 134 139 144 139 148 146 99 85 74 72 64 61 56 47 45 43 39 37 35 33 27 20 12 5 357 354 352 352 354 358 1 353 350 354 355
153 145 143 146 150 156 156 161 153 162 172 170 147 139 147 146 150 138 136 136 154 140 126 83 76 77 72 64 61 57 49 43 40 37 34 33 31 27 22 16 6 359 353 347 349 352 353 350 345 346 349 350
158 157 153 159 163 167 170 169 161 157 159 148 130 136 131 129 129 131 127 102 93 89 72 69 72 73 72 63 58 61 52 40 33 31 26 25 28 27 23 18 8 3 356 353 349 347 347 346 343 344 342 342
166 167 159 164 168 170 168 161 156 159 160 148 135 136 134 132 127 120 113 100 92 91 80 70 76 75 83 82 63 69 64 53 37 32 24 18 21 23 19 12 4 3 358 354 352 346 341 342 339 336 336 335
168 162 167 168 173 171 173 161 164 162 164 150 141 142 146 123 125 120 112 102 105 99 97 80 82 89 95 81 75 70 70 58 44 33 29 22 22 16 17 14 2 357 356 346 346 343 342 341 337 332 328 331
168 173 172 170 174 169 175 168 163 168 165 160 154 148 146 131 135 131 127 116 116 117 112 99 99 91 93 86 70 60 65 49 37 34 21 15 10 5 9 2 358 351 346 343 340 337 334 335 331 327 323 322
174 175 170 173 170 170 172 163 166 168 169 151 140 145 150 139 138 136 130 130 122 132 112 111 110 94 85 75 67 64 64 56 36 27 19 10 2 4 5 1 349 345 338 335 336 332 329 328 326 322 321 316
177 170 169 168 164 169 171 160 162 165 155 143 144 128 127 134 134 127 126 130 134 122 116 106 95 84 85 74 64 66 57 65 47 29 14 7 2 5 4 358 346 342 334 333 332 336 330 329 327 327 326 326
174 171 170 171 167 169 164 164 160 155 147 150 138 130 117 127 131 133 130 131 134 118 116 104 95 82 80 77 66 64 59 52 63 30 11 9 9 9 4 359 343 346 334 333 333 335 330 325 322 321 322 320
176 167 171 170 162 163 166 159 154 147 146 146 143 142 125 119 124 129 122 124 129 117 119 108 103 95 87 68 61 63 50 37 44 33 31 17 7 9 8 353 342 346 336 330 331 329 326 316 315 311 306 303
174 173 169 165 159 164 159 155 153 146 148 151 148 141 131 124 127 126 126 127 125 126 123 119 112 106 92 89 62 54 48 36 36 39 17 14 21 19 19 356 345 340 338 326 317 316 314 308 309 303 300 297
175 170 166 161 166 160 156 155 147 145 152 151 149 142 139 133 136 135 138 138 134 133 132 129 118 102 108 105 83 49 52 51 33 29 19 8 18 17 15 4 341 336 326 315 309 309 301 305 300 294 292 290
170 172 166 161 160 157 155 156 150 149 148 148 147 144 150 141 141 144 145 141 133 134 134 127 121 119 116 121 88 64 58 48 47 34 33 10 31 10 11 359 340 340 329 314 304 302 298 300 290 290 288 282
172 170 163 163 161 162 159 158 153 153 150 149 152 148 152 141 143 146 147 145 137 140 133 129 120 121 144 125 98 74 79 103 46 79 44 37 24 8 1 352 337 331 310 309 310 307 304 297 297 292 286 289
168 167 164 164 162 159 161 157 156 159 157 152 151 151 155 146 144 144 142 142 138 133 136 132 131 141 142 132 112 127 90 91 90 81 52 11 28 12 348 350 334 333 313 305 304 300 297 293 293 292 289 287
161 161 162 164 165 164 160 162 160 159 154 152 154 158 157 153 148 146 144 143 140 138 140 132 133 148 143 141 142 145 133 106 143 98 81 4 358 43 348 349 324 321 315 311 304 302 297 294 294 292 290 284
160 163 156 158 162 163 164 166 161 158 155 159 159 158 159 155 149 151 150 150 145 139 147 145 142 149 147 147 146 146 135 171 134 100 108 84 25 58 12 337 332 317 313 309 307 305 301 299 294 289 289 282
152 149 143 145 155 164 165 163 167 159 159 161 159 162 160 155 154 156 156 156 151 149 152 152 150 148 159 151 150 141 145 147 107 93 94 103 176 120 8 284 295 294 299 307 302 299 297 294 291 287 281 285
153 154 158 160 162 167 177 172 168 173 165 158 161 163 161 160 159 160 160 160 159 155 158 159 161 156 157 155 147 149 151 173 154 131 97 73 14 338 17 211 273 296 311 300 296 289 289 280 284 284 280 289
164 166 163 170 180 180 177 174 169 170 167 165 160 162 161 160 161 163 162 165 160 163 162 161 156 151 161 161 161 168 185 182 167 153 142 133 85 358 346 358 81 329 327 322 311 279 271 291 273 274 282 292
174 177 179 175 182 174 172 165 170 173 179 169 158 160 163 162 164 165 166 167 165 166 165 162 160 163 170 171 178 184 185 173 156 136 112 116 50 47 8 293 31 338 15 12 2 334 328 299 284 262 292 318
179 175 171 172 168 169 160 170 157 155 155 148 153 164 164 160 164 166 169 169 171 168 173 172 164 173 174 175 173 164 172 157 142 137 129 116 114 18 355 307 316 39 75 338 324 289 323 333 348 340 355 22
169 160 140 116 132 128 134 161 148 132 129 140 144 166 170 169 169 169 171 174 171 172 175 172 169 166 169 178 171 169 165 160 146 121 103 101 105 113 2 18 315 60 72 86 11 5 24 297 359 323 340 329
154 137 126 116 102 97 92 87 130 134 162 172 170 159 182 185 173 172 171 173 175 174 176 171 166 165 171 167 173 159 159 157 155 142 139 132 120 135 169 276 258 310 80 44 99 145 354 343 5 223 309 336
162 165 158 152 154 165 170 173 174 186 184 180 183 188 172 164 175 171 172 176 176 175 172 171 168 166 164 169 169 164 164 157 129 125 128 154 145 154 178 206 252 268 344 117 83 192 181 190 236 317 324 353
168 170 176 178 180 179 181 182 200 190 179 181 179 159 175 177 172 175 171 178 176 177 176 169 168 168 170 171 171 167 151 154 150 145 145 143 133 165 169 150 220 260 277 350 253 209 239 252 253 199 309 262